Simultaneous Nadir Overpasses (SNOs) Predictions

Prediction of SNOs between AQUA and GOES-15 Satellite Orbit:

Table of predicted SNOs for the next 14.0 days since TLE Epoch: 11/18/2011
Index Date Time (AQUA) AQUA Lat,Lon GOES-15 Lat,Lon Distance(km) Time Diff (sec)
1 11/19/2011 09:10:59 -0.30,-114.06 0.02,-115.53 167.45 80
2 11/19/2011 21:32:26 -0.69,-119.28 -0.00,-116.17 353.86 80
3 11/21/2011 21:20:25 0.25,-116.41 -0.02,-117.77 153.88 80
4 11/22/2011 09:41:43 0.79,-121.58 -0.01,-117.96 413.01 80
5 11/24/2011 09:29:47 -0.19,-118.74 0.01,-119.54 91.65 80
6 11/24/2011 21:51:15 -0.81,-123.97 0.01,-120.17 431.87 80
7 11/26/2011 21:39:24 0.15,-121.14 -0.01,-121.76 70.84 80
8 11/27/2011 10:00:43 0.91,-126.32 -0.02,-121.95 496.30 80
9 11/29/2011 09:48:55 -0.04,-123.51 -0.01,-123.53 4.55 80
10 12/01/2011 21:58:42 -0.04,-125.94 0.02,-125.74 23.37 80




NCC Satellite Simultaneous Nadir Overpasses (SNOs) Prediction Service
